Year,Month,Day,Hour,Minute,Value (Times are PST for windspeed in km/hr)
2017,04,06,00,00,7.00
2017,04,06,00,01,5.80
2017,04,06,00,02,4.50
2017,04,06,00,03,4.80
2017,04,06,00,04,4.80
2017,04,06,00,05,3.70
2017,04,06,00,06,6.90
2017,04,06,00,07,5.40
2017,04,06,00,08,4.50
2017,04,06,00,09,6.40
2017,04,06,00,10,7.50
2017,04,06,00,11,7.20
2017,04,06,00,12,8.20
2017,04,06,00,13,5.50
2017,04,06,00,14,3.90
2017,04,06,00,15,6.90
2017,04,06,00,16,5.00
2017,04,06,00,17,4.80
2017,04,06,00,18,6.10
2017,04,06,00,19,5.50
2017,04,06,00,20,4.80
2017,04,06,00,21,3.50
2017,04,06,00,22,3.80
2017,04,06,00,23,4.40
2017,04,06,00,24,5.20
2017,04,06,00,25,6.60
2017,04,06,00,26,6.00
2017,04,06,00,27,4.70
2017,04,06,00,28,4.40
2017,04,06,00,29,5.10
2017,04,06,00,30,4.40
2017,04,06,00,31,4.70
2017,04,06,00,32,4.50
2017,04,06,00,33,5.60
2017,04,06,00,34,5.20
2017,04,06,00,35,5.30
2017,04,06,00,36,5.50
2017,04,06,00,37,7.60
2017,04,06,00,38,5.60
2017,04,06,00,39,7.90
2017,04,06,00,40,5.80
2017,04,06,00,41,6.40
2017,04,06,00,42,4.40
2017,04,06,00,43,4.70
2017,04,06,00,44,5.00
2017,04,06,00,45,4.20
2017,04,06,00,46,4.20
2017,04,06,00,47,8.10
2017,04,06,00,48,5.70
2017,04,06,00,49,4.00
2017,04,06,00,50,3.80
2017,04,06,00,51,3.40
2017,04,06,00,52,4.00
2017,04,06,00,53,3.70
2017,04,06,00,54,4.70
2017,04,06,00,55,3.80
2017,04,06,00,56,4.60
2017,04,06,00,57,4.20
2017,04,06,00,58,3.90
2017,04,06,00,59,6.00
2017,04,06,01,00,5.40
2017,04,06,01,01,4.30
2017,04,06,01,02,4.60
2017,04,06,01,03,5.80
2017,04,06,01,04,4.30
2017,04,06,01,05,3.30
2017,04,06,01,06,4.80
2017,04,06,01,07,5.40
2017,04,06,01,08,4.70
2017,04,06,01,09,5.30
2017,04,06,01,10,4.90
2017,04,06,01,11,5.30
2017,04,06,01,12,4.70
2017,04,06,01,13,3.80
2017,04,06,01,14,2.90
2017,04,06,01,15,6.40
2017,04,06,01,16,6.40
2017,04,06,01,17,6.40
2017,04,06,01,18,5.80
2017,04,06,01,19,8.40
2017,04,06,01,20,4.30
2017,04,06,01,21,4.70
2017,04,06,01,22,5.70
2017,04,06,01,23,7.80
2017,04,06,01,24,8.30
2017,04,06,01,25,3.90
2017,04,06,01,26,6.30
2017,04,06,01,27,5.60
2017,04,06,01,28,5.20
2017,04,06,01,29,8.30
2017,04,06,01,30,7.30
2017,04,06,01,31,9.10
2017,04,06,01,32,5.40
2017,04,06,01,33,5.40
2017,04,06,01,34,6.40
2017,04,06,01,35,7.80
2017,04,06,01,36,8.90
2017,04,06,01,37,9.50
2017,04,06,01,38,6.40
2017,04,06,01,39,7.60
2017,04,06,01,40,7.20
2017,04,06,01,41,8.40
2017,04,06,01,42,7.60
2017,04,06,01,43,8.10
2017,04,06,01,44,8.90
2017,04,06,01,45,9.30
2017,04,06,01,46,8.80
2017,04,06,01,47,8.90
2017,04,06,01,48,7.70
2017,04,06,01,49,7.20
2017,04,06,01,50,5.70
2017,04,06,01,51,8.20
2017,04,06,01,52,7.70
2017,04,06,01,53,7.30
2017,04,06,01,54,6.70
2017,04,06,01,55,9.50
2017,04,06,01,56,9.20
2017,04,06,01,57,6.70
2017,04,06,01,58,7.70
2017,04,06,01,59,9.20
2017,04,06,02,00,7.60
2017,04,06,02,01,6.70
2017,04,06,02,02,7.20
2017,04,06,02,03,7.90
2017,04,06,02,04,8.10
2017,04,06,02,05,10.10
2017,04,06,02,06,10.70
2017,04,06,02,07,11.00
2017,04,06,02,08,11.00
2017,04,06,02,09,8.90
2017,04,06,02,10,9.20
2017,04,06,02,11,8.60
2017,04,06,02,12,8.80
2017,04,06,02,13,10.00
2017,04,06,02,14,15.10
2017,04,06,02,15,10.10
2017,04,06,02,16,12.10
2017,04,06,02,17,13.50
2017,04,06,02,18,12.40
2017,04,06,02,19,16.30
2017,04,06,02,20,16.70
2017,04,06,02,21,13.00
2017,04,06,02,22,14.30
2017,04,06,02,23,17.00
2017,04,06,02,24,15.80
2017,04,06,02,25,17.00
2017,04,06,02,26,10.50
2017,04,06,02,27,10.60
2017,04,06,02,28,12.40
2017,04,06,02,29,11.50
2017,04,06,02,30,17.50
2017,04,06,02,31,11.40
2017,04,06,02,32,12.30
2017,04,06,02,33,14.20
2017,04,06,02,34,15.00
2017,04,06,02,35,10.40
2017,04,06,02,36,11.10
2017,04,06,02,37,13.40
2017,04,06,02,38,13.40
2017,04,06,02,39,12.50
2017,04,06,02,40,11.80
2017,04,06,02,41,12.30
2017,04,06,02,42,14.60
2017,04,06,02,43,12.60
2017,04,06,02,44,15.00
2017,04,06,02,45,14.60
2017,04,06,02,46,12.50
2017,04,06,02,47,13.80
2017,04,06,02,48,16.50
2017,04,06,02,49,17.50
2017,04,06,02,50,11.60
2017,04,06,02,51,9.60
2017,04,06,02,52,8.80
2017,04,06,02,53,12.50
2017,04,06,02,54,14.30
2017,04,06,02,55,12.60
2017,04,06,02,56,9.60
2017,04,06,02,57,7.20
2017,04,06,02,58,9.60
2017,04,06,02,59,13.70
2017,04,06,03,00,12.20
2017,04,06,03,01,12.50
2017,04,06,03,02,12.60
2017,04,06,03,03,5.20
2017,04,06,03,04,10.40
2017,04,06,03,05,13.10
2017,04,06,03,06,13.50
2017,04,06,03,07,6.60
2017,04,06,03,08,9.30
2017,04,06,03,09,11.40
2017,04,06,03,10,8.80
2017,04,06,03,11,10.70
2017,04,06,03,12,11.00
2017,04,06,03,13,9.30
2017,04,06,03,14,8.80
2017,04,06,03,15,9.30
2017,04,06,03,16,8.70
2017,04,06,03,17,6.20
2017,04,06,03,18,5.70
2017,04,06,03,19,10.90
2017,04,06,03,20,11.20
2017,04,06,03,21,12.70
2017,04,06,03,22,10.50
2017,04,06,03,23,8.50
2017,04,06,03,24,11.80
2017,04,06,03,25,14.60
2017,04,06,03,26,10.50
2017,04,06,03,27,12.40
2017,04,06,03,28,11.90
2017,04,06,03,29,12.20
2017,04,06,03,30,11.50
2017,04,06,03,31,13.10
2017,04,06,03,32,6.00
2017,04,06,03,33,9.10
2017,04,06,03,34,8.90
2017,04,06,03,35,9.00
2017,04,06,03,36,4.30
2017,04,06,03,37,10.80
2017,04,06,03,38,13.40
2017,04,06,03,39,11.30
2017,04,06,03,40,12.90
2017,04,06,03,41,11.00
2017,04,06,03,42,11.30
2017,04,06,03,43,11.00
2017,04,06,03,44,12.40
2017,04,06,03,45,10.90
2017,04,06,03,46,14.10
2017,04,06,03,47,15.60
2017,04,06,03,48,13.40
2017,04,06,03,49,14.10
2017,04,06,03,50,12.30
2017,04,06,03,51,8.30
2017,04,06,03,52,13.10
2017,04,06,03,53,15.30
2017,04,06,03,54,8.60
2017,04,06,03,55,14.10
2017,04,06,03,56,16.60
2017,04,06,03,57,17.10
2017,04,06,03,58,16.70
2017,04,06,03,59,15.90
2017,04,06,04,00,15.50
2017,04,06,04,01,11.90
2017,04,06,04,02,16.90
2017,04,06,04,03,11.90
2017,04,06,04,04,17.40
2017,04,06,04,05,16.00
2017,04,06,04,06,15.70
2017,04,06,04,07,14.30
2017,04,06,04,08,13.50
2017,04,06,04,09,13.80
2017,04,06,04,10,12.30
2017,04,06,04,11,13.50
2017,04,06,04,12,12.80
2017,04,06,04,13,12.50
2017,04,06,04,14,10.30
2017,04,06,04,15,5.70
2017,04,06,04,16,7.80
2017,04,06,04,17,9.30
2017,04,06,04,18,7.90
2017,04,06,04,19,6.40
2017,04,06,04,20,9.30
2017,04,06,04,21,8.70
2017,04,06,04,22,10.00
2017,04,06,04,23,10.70
2017,04,06,04,24,11.90
2017,04,06,04,25,14.10
2017,04,06,04,26,13.20
2017,04,06,04,27,16.40
2017,04,06,04,28,12.60
2017,04,06,04,29,10.20
2017,04,06,04,30,16.80
2017,04,06,04,31,18.30
2017,04,06,04,32,12.40
2017,04,06,04,33,15.10
2017,04,06,04,34,18.30
2017,04,06,04,35,20.80
2017,04,06,04,36,17.50
2017,04,06,04,37,13.30
2017,04,06,04,38,16.80
2017,04,06,04,39,16.40
2017,04,06,04,40,18.00
2017,04,06,04,41,15.80
2017,04,06,04,42,14.20
2017,04,06,04,43,17.80
2017,04,06,04,44,9.70
2017,04,06,04,45,16.90
2017,04,06,04,46,15.10
2017,04,06,04,47,15.50
2017,04,06,04,48,18.50
2017,04,06,04,49,11.60
2017,04,06,04,50,14.30
2017,04,06,04,51,15.70
2017,04,06,04,52,10.50
2017,04,06,04,53,12.50
2017,04,06,04,54,8.10
2017,04,06,04,55,9.40
2017,04,06,04,56,11.50
2017,04,06,04,57,9.70
2017,04,06,04,58,11.90
2017,04,06,04,59,10.80
2017,04,06,05,00,10.40
2017,04,06,05,01,14.20
2017,04,06,05,02,12.90
2017,04,06,05,03,10.80
2017,04,06,05,04,10.00
2017,04,06,05,05,15.20
2017,04,06,05,06,15.90
2017,04,06,05,07,13.00
2017,04,06,05,08,7.10
2017,04,06,05,09,7.40
2017,04,06,05,10,13.00
2017,04,06,05,11,11.30
2017,04,06,05,12,10.30
2017,04,06,05,13,8.20
2017,04,06,05,14,6.00
2017,04,06,05,15,7.60
2017,04,06,05,16,11.20
2017,04,06,05,17,10.90
2017,04,06,05,18,8.00
2017,04,06,05,19,13.40
2017,04,06,05,20,8.80
2017,04,06,05,21,9.70
2017,04,06,05,22,8.00
2017,04,06,05,23,9.30
2017,04,06,05,24,12.20
2017,04,06,05,25,8.70
2017,04,06,05,26,7.70
2017,04,06,05,27,10.90
2017,04,06,05,28,8.40
2017,04,06,05,29,9.80
2017,04,06,05,30,13.00
2017,04,06,05,31,7.20
2017,04,06,05,32,12.20
2017,04,06,05,33,9.10
2017,04,06,05,34,12.00
2017,04,06,05,35,7.60
2017,04,06,05,36,7.20
2017,04,06,05,37,10.40
2017,04,06,05,38,8.10
2017,04,06,05,39,10.40
2017,04,06,05,40,9.40
2017,04,06,05,41,9.10
2017,04,06,05,42,6.80
2017,04,06,05,43,10.30
2017,04,06,05,44,9.50
2017,04,06,05,45,9.70
2017,04,06,05,46,7.00
2017,04,06,05,47,10.50
2017,04,06,05,48,7.70
2017,04,06,05,49,6.00
2017,04,06,05,50,7.40
2017,04,06,05,51,4.80
2017,04,06,05,52,8.20
2017,04,06,05,53,4.90
2017,04,06,05,54,4.10
2017,04,06,05,55,5.20
2017,04,06,05,56,6.80
2017,04,06,05,57,6.00
2017,04,06,05,58,7.60
2017,04,06,05,59,5.00
2017,04,06,06,00,5.60
2017,04,06,06,01,4.90
2017,04,06,06,02,4.70
2017,04,06,06,03,5.50
2017,04,06,06,04,7.80
2017,04,06,06,05,10.40
2017,04,06,06,06,9.20
2017,04,06,06,07,10.90
2017,04,06,06,08,7.60
2017,04,06,06,09,9.20
2017,04,06,06,10,10.00
2017,04,06,06,11,10.80
2017,04,06,06,12,12.60
2017,04,06,06,13,12.80
2017,04,06,06,14,9.70
2017,04,06,06,15,10.70
2017,04,06,06,16,8.60
2017,04,06,06,17,8.40
2017,04,06,06,18,5.30
2017,04,06,06,19,6.80
2017,04,06,06,20,8.20
2017,04,06,06,21,5.30
2017,04,06,06,22,6.40
2017,04,06,06,23,5.70
2017,04,06,06,24,5.00
2017,04,06,06,25,4.10
2017,04,06,06,26,4.50
2017,04,06,06,27,6.40
2017,04,06,06,28,3.90
2017,04,06,06,29,3.30
2017,04,06,06,30,4.90
2017,04,06,06,31,6.00
2017,04,06,06,32,3.50
2017,04,06,06,33,5.60
2017,04,06,06,34,3.50
2017,04,06,06,35,7.40
2017,04,06,06,36,5.60
2017,04,06,06,37,5.50
2017,04,06,06,38,9.50
2017,04,06,06,39,7.20
2017,04,06,06,40,10.20
2017,04,06,06,41,8.10
2017,04,06,06,42,9.60
2017,04,06,06,43,10.70
2017,04,06,06,44,14.00
2017,04,06,06,45,19.10
2017,04,06,06,46,11.60
2017,04,06,06,47,11.00
2017,04,06,06,48,11.70
2017,04,06,06,49,7.50
2017,04,06,06,50,10.70
2017,04,06,06,51,15.40
2017,04,06,06,52,11.30
2017,04,06,06,53,13.50
2017,04,06,06,54,9.30
2017,04,06,06,55,10.80
2017,04,06,06,56,6.10
2017,04,06,06,57,12.20
2017,04,06,06,58,12.60
2017,04,06,06,59,13.20
2017,04,06,07,00,9.70
2017,04,06,07,01,14.60
2017,04,06,07,02,15.90
2017,04,06,07,03,12.50
2017,04,06,07,04,11.20
2017,04,06,07,05,15.90
2017,04,06,07,06,14.60
2017,04,06,07,07,14.20
2017,04,06,07,08,11.20
2017,04,06,07,09,21.20
2017,04,06,07,10,16.00
2017,04,06,07,11,15.80
2017,04,06,07,12,17.10
2017,04,06,07,13,15.80
2017,04,06,07,14,16.60
2017,04,06,07,15,15.40
2017,04,06,07,16,11.60
2017,04,06,07,17,10.30
2017,04,06,07,18,12.90
2017,04,06,07,19,13.40
2017,04,06,07,20,8.50
2017,04,06,07,21,11.80
2017,04,06,07,22,8.00
2017,04,06,07,23,15.30
2017,04,06,07,24,15.40
2017,04,06,07,25,14.70
2017,04,06,07,26,8.70
2017,04,06,07,27,11.70
2017,04,06,07,28,14.10
2017,04,06,07,29,15.20
2017,04,06,07,30,13.30
2017,04,06,07,31,10.20
2017,04,06,07,32,16.30
2017,04,06,07,33,12.80
2017,04,06,07,34,14.80
2017,04,06,07,35,16.80
2017,04,06,07,36,9.90
2017,04,06,07,37,17.10
2017,04,06,07,38,17.70
2017,04,06,07,39,15.10
2017,04,06,07,40,15.00
2017,04,06,07,41,22.10
2017,04,06,07,42,18.80
2017,04,06,07,43,13.10
2017,04,06,07,44,14.50
2017,04,06,07,45,11.50
2017,04,06,07,46,10.30
2017,04,06,07,47,10.50
2017,04,06,07,48,10.30
2017,04,06,07,49,8.60
2017,04,06,07,50,8.80
2017,04,06,07,51,6.10
2017,04,06,07,52,8.00
2017,04,06,07,53,11.20
2017,04,06,07,54,9.40
2017,04,06,07,55,10.60
2017,04,06,07,56,7.40
2017,04,06,07,57,9.50
2017,04,06,07,58,6.40
2017,04,06,07,59,9.50
2017,04,06,08,00,9.50
2017,04,06,08,01,8.10
2017,04,06,08,02,8.10
2017,04,06,08,03,8.90
2017,04,06,08,04,9.50
2017,04,06,08,05,8.00
2017,04,06,08,06,6.40
2017,04,06,08,07,11.30
2017,04,06,08,08,9.10
2017,04,06,08,09,8.10
2017,04,06,08,10,7.20
2017,04,06,08,11,6.90
2017,04,06,08,12,9.70
2017,04,06,08,13,9.00
2017,04,06,08,14,9.50
2017,04,06,08,15,7.80
2017,04,06,08,16,7.60
2017,04,06,08,17,5.90
2017,04,06,08,18,6.40
2017,04,06,08,19,6.40
2017,04,06,08,20,6.80
2017,04,06,08,21,8.40
2017,04,06,08,22,7.10
2017,04,06,08,23,7.70
2017,04,06,08,24,7.20
2017,04,06,08,25,4.90
2017,04,06,08,26,7.60
2017,04,06,08,27,8.20
2017,04,06,08,28,8.30
2017,04,06,08,29,4.20
2017,04,06,08,30,4.70
2017,04,06,08,31,3.50
2017,04,06,08,32,4.30
2017,04,06,08,33,4.70
2017,04,06,08,34,6.10
2017,04,06,08,35,7.10
2017,04,06,08,36,8.40
2017,04,06,08,37,8.10
2017,04,06,08,38,6.90
2017,04,06,08,39,8.30
2017,04,06,08,40,7.00
2017,04,06,08,41,6.70
2017,04,06,08,42,9.90
2017,04,06,08,43,13.20
2017,04,06,08,44,13.60
2017,04,06,08,45,14.10
2017,04,06,08,46,10.00
2017,04,06,08,47,11.30
2017,04,06,08,48,10.60
2017,04,06,08,49,14.40
2017,04,06,08,50,17.90
2017,04,06,08,51,14.90
2017,04,06,08,52,12.00
2017,04,06,08,53,11.60
2017,04,06,08,54,13.90
2017,04,06,08,55,12.20
2017,04,06,08,56,14.50
2017,04,06,08,57,15.90
2017,04,06,08,58,16.90
2017,04,06,08,59,14.40
2017,04,06,09,00,21.80
2017,04,06,09,01,17.50
2017,04,06,09,02,16.70
2017,04,06,09,03,16.80
2017,04,06,09,04,23.10
2017,04,06,09,05,24.80
2017,04,06,09,06,18.00
2017,04,06,09,07,17.10
2017,04,06,09,08,22.90
2017,04,06,09,09,24.30
2017,04,06,09,10,20.80
2017,04,06,09,11,13.50
2017,04,06,09,12,21.00
2017,04,06,09,13,17.50
2017,04,06,09,14,15.50
2017,04,06,09,15,19.90
2017,04,06,09,16,23.80
2017,04,06,09,17,24.90
2017,04,06,09,18,21.90
2017,04,06,09,19,25.70
2017,04,06,09,20,19.60
2017,04,06,09,21,20.80
2017,04,06,09,22,24.40
2017,04,06,09,23,29.80
2017,04,06,09,24,25.60
2017,04,06,09,25,20.60
2017,04,06,09,26,17.90
2017,04,06,09,27,23.00
2017,04,06,09,28,22.90
2017,04,06,09,29,25.70
2017,04,06,09,30,27.70
2017,04,06,09,31,17.40
2017,04,06,09,32,14.90
2017,04,06,09,33,23.80
2017,04,06,09,34,27.90
2017,04,06,09,35,26.70
2017,04,06,09,36,24.90
2017,04,06,09,37,18.90
2017,04,06,09,38,21.00
2017,04,06,09,39,18.40
2017,04,06,09,40,19.20
2017,04,06,09,41,15.90
2017,04,06,09,42,24.50
2017,04,06,09,43,24.30
2017,04,06,09,44,17.70
2017,04,06,09,45,24.70
2017,04,06,09,46,21.80
2017,04,06,09,47,16.40
2017,04,06,09,48,19.50
2017,04,06,09,49,22.70
2017,04,06,09,50,20.00
2017,04,06,09,51,16.30
2017,04,06,09,52,24.00
2017,04,06,09,53,24.00
2017,04,06,09,54,28.10
2017,04,06,09,55,23.30
2017,04,06,09,56,19.10
2017,04,06,09,57,28.20
2017,04,06,09,58,28.80
2017,04,06,09,59,24.30
2017,04,06,10,00,20.20
2017,04,06,10,01,24.10
2017,04,06,10,02,27.30
2017,04,06,10,03,27.60
2017,04,06,10,04,24.40
2017,04,06,10,05,27.40
2017,04,06,10,06,25.80
2017,04,06,10,07,18.90
2017,04,06,10,08,14.40
2017,04,06,10,09,18.50
2017,04,06,10,10,24.90
2017,04,06,10,11,20.60
2017,04,06,10,12,19.10
2017,04,06,10,13,22.60
2017,04,06,10,14,25.20
2017,04,06,10,15,28.40
2017,04,06,10,16,16.70
2017,04,06,10,17,16.00
2017,04,06,10,18,26.70
2017,04,06,10,19,26.40
2017,04,06,10,20,25.80
2017,04,06,10,21,15.90
2017,04,06,10,22,11.70
2017,04,06,10,23,15.20
2017,04,06,10,24,12.30
2017,04,06,10,25,20.60
2017,04,06,10,26,18.70
2017,04,06,10,27,20.10
2017,04,06,10,28,16.30
2017,04,06,10,29,21.00
2017,04,06,10,30,19.60
2017,04,06,10,31,20.50
2017,04,06,10,32,13.00
2017,04,06,10,33,18.60
2017,04,06,10,34,16.20
2017,04,06,10,35,21.60
2017,04,06,10,36,20.40
2017,04,06,10,37,22.90
2017,04,06,10,38,17.30
2017,04,06,10,39,14.80
2017,04,06,10,40,21.70
2017,04,06,10,41,20.00
2017,04,06,10,42,20.30
2017,04,06,10,43,24.10
2017,04,06,10,44,20.80
2017,04,06,10,45,21.80
2017,04,06,10,46,27.80
2017,04,06,10,47,24.60
2017,04,06,10,48,24.90
2017,04,06,10,49,21.80
2017,04,06,10,50,19.80
2017,04,06,10,51,17.60
2017,04,06,10,52,20.00
2017,04,06,10,53,22.10
2017,04,06,10,54,20.00
2017,04,06,10,55,22.10
2017,04,06,10,56,17.20
2017,04,06,10,57,18.20
2017,04,06,10,58,12.80
2017,04,06,10,59,21.60
2017,04,06,11,00,19.20
2017,04,06,11,01,16.30
2017,04,06,11,02,13.40
2017,04,06,11,03,14.10
2017,04,06,11,04,17.70
2017,04,06,11,05,17.60
2017,04,06,11,06,15.80
2017,04,06,11,07,19.50
2017,04,06,11,08,17.10
2017,04,06,11,09,17.70
2017,04,06,11,10,18.00
2017,04,06,11,11,20.50
2017,04,06,11,12,16.40
2017,04,06,11,13,20.50
2017,04,06,11,14,21.90
2017,04,06,11,15,16.60
2017,04,06,11,16,14.20
2017,04,06,11,17,16.70
2017,04,06,11,18,14.10
2017,04,06,11,19,18.80
2017,04,06,11,20,18.50
2017,04,06,11,21,15.50
2017,04,06,11,22,16.90
2017,04,06,11,23,17.40
2017,04,06,11,24,15.80
2017,04,06,11,25,19.30
2017,04,06,11,26,16.50
2017,04,06,11,27,15.70
2017,04,06,11,28,18.50
2017,04,06,11,29,19.30
2017,04,06,11,30,19.20
2017,04,06,11,31,19.50
2017,04,06,11,32,10.90
2017,04,06,11,33,13.10
2017,04,06,11,34,12.00
2017,04,06,11,35,15.50
2017,04,06,11,36,17.50
2017,04,06,11,37,19.80
2017,04,06,11,38,13.30
2017,04,06,11,39,11.80
2017,04,06,11,40,16.50
2017,04,06,11,41,17.90
2017,04,06,11,42,17.50
2017,04,06,11,43,15.80
2017,04,06,11,44,19.70
2017,04,06,11,45,18.30
2017,04,06,11,46,15.80
2017,04,06,11,47,16.30
2017,04,06,11,48,16.70
2017,04,06,11,49,18.50
2017,04,06,11,50,19.90
2017,04,06,11,51,24.10
2017,04,06,11,52,20.70
2017,04,06,11,53,20.80
2017,04,06,11,54,19.10
2017,04,06,11,55,15.40
2017,04,06,11,56,17.60
2017,04,06,11,57,16.60
2017,04,06,11,58,18.80
2017,04,06,11,59,17.50
2017,04,06,12,00,19.00
2017,04,06,12,01,13.30
2017,04,06,12,02,12.50
2017,04,06,12,03,13.30
2017,04,06,12,04,15.20
2017,04,06,12,05,17.80
2017,04,06,12,06,14.80
2017,04,06,12,07,4.20
2017,04,06,12,08,6.90
2017,04,06,12,09,14.00
2017,04,06,12,10,20.70
2017,04,06,12,11,13.00
2017,04,06,12,12,12.60
2017,04,06,12,13,19.50
2017,04,06,12,14,16.70
2017,04,06,12,15,19.50
2017,04,06,12,16,13.40
2017,04,06,12,17,15.40
2017,04,06,12,18,12.40
2017,04,06,12,19,12.20
2017,04,06,12,20,14.10
2017,04,06,12,21,14.00
2017,04,06,12,22,13.70
2017,04,06,12,23,12.10
2017,04,06,12,24,18.90
2017,04,06,12,25,23.80
2017,04,06,12,26,15.60
2017,04,06,12,27,19.90
2017,04,06,12,28,12.90
2017,04,06,12,29,17.50
2017,04,06,12,30,15.00
2017,04,06,12,31,12.50
2017,04,06,12,32,18.20
2017,04,06,12,33,17.00
2017,04,06,12,34,14.10
2017,04,06,12,35,17.10
2017,04,06,12,36,14.80
2017,04,06,12,37,16.10
2017,04,06,12,38,15.80
2017,04,06,12,39,12.60
2017,04,06,12,40,8.60
2017,04,06,12,41,17.90
2017,04,06,12,42,17.10
2017,04,06,12,43,11.70
2017,04,06,12,44,15.80
2017,04,06,12,45,13.60
2017,04,06,12,46,11.30
2017,04,06,12,47,15.40
2017,04,06,12,48,14.60
2017,04,06,12,49,15.00
2017,04,06,12,50,13.40
2017,04,06,12,51,16.60
2017,04,06,12,52,15.60
2017,04,06,12,53,8.00
2017,04,06,12,54,16.00
2017,04,06,12,55,12.90
2017,04,06,12,56,13.00
2017,04,06,12,57,23.50
2017,04,06,12,58,20.00
2017,04,06,12,59,14.30
2017,04,06,13,00,15.10
2017,04,06,13,01,16.00
2017,04,06,13,02,14.70
2017,04,06,13,03,8.80
2017,04,06,13,04,15.40
2017,04,06,13,05,24.80
2017,04,06,13,06,20.30
2017,04,06,13,07,13.40
2017,04,06,13,08,11.70
2017,04,06,13,09,13.10
2017,04,06,13,10,18.60
2017,04,06,13,11,12.40
2017,04,06,13,12,17.40
2017,04,06,13,13,14.00
2017,04,06,13,14,14.10
2017,04,06,13,15,10.90
2017,04,06,13,16,6.20
2017,04,06,13,17,6.40
2017,04,06,13,18,6.50
2017,04,06,13,19,15.80
2017,04,06,13,20,15.50
2017,04,06,13,21,20.90
2017,04,06,13,22,18.80
2017,04,06,13,23,17.90
2017,04,06,13,24,17.20
2017,04,06,13,25,10.80
2017,04,06,13,26,11.40
2017,04,06,13,27,13.70
2017,04,06,13,28,14.20
2017,04,06,13,29,20.80
2017,04,06,13,30,13.80
2017,04,06,13,31,15.00
2017,04,06,13,32,17.00
2017,04,06,13,33,13.80
2017,04,06,13,34,13.00
2017,04,06,13,35,12.50
2017,04,06,13,36,14.20
2017,04,06,13,37,17.60
2017,04,06,13,38,8.70
2017,04,06,13,39,16.60
2017,04,06,13,40,19.00
2017,04,06,13,41,12.00
2017,04,06,13,42,10.50
2017,04,06,13,43,13.10
2017,04,06,13,44,11.50
2017,04,06,13,45,12.60
2017,04,06,13,46,14.30
2017,04,06,13,47,19.50
2017,04,06,13,48,16.20
2017,04,06,13,49,15.50
2017,04,06,13,50,15.60
2017,04,06,13,51,17.10
2017,04,06,13,52,14.60
2017,04,06,13,53,12.20
2017,04,06,13,54,17.70
2017,04,06,13,55,19.20
2017,04,06,13,56,18.50
2017,04,06,13,57,14.90
2017,04,06,13,58,14.60
2017,04,06,13,59,15.20
2017,04,06,14,00,16.10
2017,04,06,14,01,16.70
2017,04,06,14,02,15.10
2017,04,06,14,03,14.20
2017,04,06,14,04,13.50
2017,04,06,14,05,18.30
2017,04,06,14,06,12.70
2017,04,06,14,07,18.30
2017,04,06,14,08,15.50
2017,04,06,14,09,17.30
2017,04,06,14,10,15.00
2017,04,06,14,11,18.60
2017,04,06,14,12,13.80
2017,04,06,14,13,15.10
2017,04,06,14,14,13.50
2017,04,06,14,15,10.60
2017,04,06,14,16,11.60
2017,04,06,14,17,8.60
2017,04,06,14,18,13.30
2017,04,06,14,19,14.10
2017,04,06,14,20,13.50
2017,04,06,14,21,10.10
2017,04,06,14,22,16.20
2017,04,06,14,23,11.30
2017,04,06,14,24,12.50
2017,04,06,14,25,16.90
2017,04,06,14,26,15.00
2017,04,06,14,27,15.00
2017,04,06,14,28,14.60
2017,04,06,14,29,15.60
2017,04,06,14,30,14.00
2017,04,06,14,31,14.60
2017,04,06,14,32,15.70
2017,04,06,14,33,19.00
2017,04,06,14,34,10.60
2017,04,06,14,35,11.50
2017,04,06,14,36,9.30
2017,04,06,14,37,7.40
2017,04,06,14,38,13.30
2017,04,06,14,39,14.00
2017,04,06,14,40,7.90
2017,04,06,14,41,9.70
2017,04,06,14,42,10.40
2017,04,06,14,43,10.00
2017,04,06,14,44,6.30
2017,04,06,14,45,12.80
2017,04,06,14,46,15.80
2017,04,06,14,47,16.60
2017,04,06,14,48,14.40
2017,04,06,14,49,12.70
2017,04,06,14,50,14.80
2017,04,06,14,51,13.20
2017,04,06,14,52,16.90
2017,04,06,14,53,12.50
2017,04,06,14,54,12.50
2017,04,06,14,55,6.80
2017,04,06,14,56,8.10
2017,04,06,14,57,4.00
2017,04,06,14,58,11.90
2017,04,06,14,59,6.40
2017,04,06,15,00,8.30
2017,04,06,15,01,5.20
2017,04,06,15,02,2.10
2017,04,06,15,03,3.80
2017,04,06,15,04,4.00
2017,04,06,15,05,3.50
2017,04,06,15,06,4.80
2017,04,06,15,07,5.10
2017,04,06,15,08,11.20
2017,04,06,15,09,6.80
2017,04,06,15,10,7.90
2017,04,06,15,11,16.30
2017,04,06,15,12,9.30
2017,04,06,15,13,6.40
2017,04,06,15,14,7.60
2017,04,06,15,15,10.50
2017,04,06,15,16,8.90
2017,04,06,15,17,8.10
2017,04,06,15,18,6.80
2017,04,06,15,19,8.70
2017,04,06,15,20,8.40
2017,04,06,15,21,8.60
2017,04,06,15,22,6.60
2017,04,06,15,23,6.00
2017,04,06,15,24,11.40
2017,04,06,15,25,8.60
2017,04,06,15,26,11.60
2017,04,06,15,27,5.60
2017,04,06,15,28,5.60
2017,04,06,15,29,5.30
2017,04,06,15,30,4.80
2017,04,06,15,31,3.00
2017,04,06,15,32,2.70
2017,04,06,15,33,6.80
2017,04,06,15,34,8.90
2017,04,06,15,35,4.80
2017,04,06,15,36,2.40
2017,04,06,15,37,3.00
2017,04,06,15,38,4.10
2017,04,06,15,39,8.00
2017,04,06,15,40,5.60
2017,04,06,15,41,6.80
2017,04,06,15,42,11.30
2017,04,06,15,43,11.10
2017,04,06,15,44,11.00
2017,04,06,15,45,13.20
2017,04,06,15,46,7.60
2017,04,06,15,47,10.90
2017,04,06,15,48,9.00
2017,04,06,15,49,11.60
2017,04,06,15,50,11.70
2017,04,06,15,51,15.90
2017,04,06,15,52,17.40
2017,04,06,15,53,14.30
2017,04,06,15,54,15.20
2017,04,06,15,55,11.80
2017,04,06,15,56,15.60
2017,04,06,15,57,14.30
2017,04,06,15,58,12.00
2017,04,06,15,59,9.70
2017,04,06,16,00,10.40
2017,04,06,16,01,9.40
2017,04,06,16,02,9.20
2017,04,06,16,03,16.60
2017,04,06,16,04,12.20
2017,04,06,16,05,11.40
2017,04,06,16,06,12.20
2017,04,06,16,07,9.30
2017,04,06,16,08,16.90
2017,04,06,16,09,13.20
2017,04,06,16,10,11.70
2017,04,06,16,11,16.10
2017,04,06,16,12,12.10
2017,04,06,16,13,9.50
2017,04,06,16,14,5.40
2017,04,06,16,15,6.70
2017,04,06,16,16,10.50
2017,04,06,16,17,9.70
2017,04,06,16,18,5.40
2017,04,06,16,19,4.40
2017,04,06,16,20,7.60
2017,04,06,16,21,8.90
2017,04,06,16,22,9.10
2017,04,06,16,23,6.40
2017,04,06,16,24,10.50
2017,04,06,16,25,7.30
2017,04,06,16,26,8.50
2017,04,06,16,27,4.90
2017,04,06,16,28,5.70
2017,04,06,16,29,10.50
2017,04,06,16,30,12.80
2017,04,06,16,31,11.00
2017,04,06,16,32,10.50
2017,04,06,16,33,10.50
2017,04,06,16,34,9.80
2017,04,06,16,35,11.00
2017,04,06,16,36,10.20
2017,04,06,16,37,11.90
2017,04,06,16,38,11.70
2017,04,06,16,39,8.40
2017,04,06,16,40,7.30
2017,04,06,16,41,5.20
2017,04,06,16,42,7.30
2017,04,06,16,43,10.60
2017,04,06,16,44,9.30
2017,04,06,16,45,8.50
2017,04,06,16,46,5.30
2017,04,06,16,47,6.40
2017,04,06,16,48,8.20
2017,04,06,16,49,6.80
2017,04,06,16,50,6.60
2017,04,06,16,51,6.30
2017,04,06,16,52,4.60
2017,04,06,16,53,9.50
2017,04,06,16,54,11.10
2017,04,06,16,55,6.80
2017,04,06,16,56,6.00
2017,04,06,16,57,6.10
2017,04,06,16,58,5.20
2017,04,06,16,59,4.20
2017,04,06,17,00,8.10
2017,04,06,17,01,10.30
2017,04,06,17,02,8.00
2017,04,06,17,03,6.80
2017,04,06,17,04,6.30
2017,04,06,17,05,6.60
2017,04,06,17,06,5.10
2017,04,06,17,07,8.50
2017,04,06,17,08,8.90
2017,04,06,17,09,5.50
2017,04,06,17,10,6.70
2017,04,06,17,11,6.70
2017,04,06,17,12,6.80
2017,04,06,17,13,8.60
2017,04,06,17,14,10.50
2017,04,06,17,15,11.40
2017,04,06,17,16,14.30
2017,04,06,17,17,11.30
2017,04,06,17,18,14.00
2017,04,06,17,19,15.90
2017,04,06,17,20,16.30
2017,04,06,17,21,12.30
2017,04,06,17,22,17.10
2017,04,06,17,23,17.90
2017,04,06,17,24,11.10
2017,04,06,17,25,14.10
2017,04,06,17,26,11.60
2017,04,06,17,27,13.70
2017,04,06,17,28,11.60
2017,04,06,17,29,8.80
2017,04,06,17,30,9.80
2017,04,06,17,31,10.80
2017,04,06,17,32,13.20
2017,04,06,17,33,12.60
2017,04,06,17,34,11.40
2017,04,06,17,35,11.70
2017,04,06,17,36,16.70